KNZY

Naval Air Station North Island

Airport
ICAO code
KNZY
Summary
ICAO Region
NAM
ICAO Territory
Location

San Diego, California,

Coordinates
32° 41' 53" N , 117° 12' 16" W
KCC
Airport WX
Fog
Metar
Observation
KNZY 031652Z 00000KT 10SM SCT200 BKN250 14/04 A3023 RMK AO2 SLP236 T01390044 $
Station
San Diego, North Island, Naval Air Station
Date/Time
2023-02-03 16:52:00
Wind direction
Wind speed
00 kts
Lowest cloud amount
scattered clouds
Temperature
13.9°C
Dew point
4.4°C
Humidity
52%
Weather condition
n/a

Description

Naval Air Station North Island, or NAS North Island, is located at the north end of the Coronado peninsula on San Diego Bay in San Diego, California. It is the home port to the aircraft compliment of several aircraft carriers of the United States Navy.

Climatology

Semi-arid or Mediterranean (Köppen climate classification BSh or Csa/Csb). It enjoys mild, sunny weather throughout the year. Since the San Diego area straddles areas of Mediterranean climate (Csa) to the north, and Semi-arid climate (BSh) to the south and east, the climate is often referred to as "Mediterranean" or "arid-mediterranean". Fog is common in May and June.

Runways

Designator Length Width Surface Rops
11/29 2286 91 PEM Yes/Yes
18/36 2438 61 PEM Yes/Yes

Airport map

Aerial View

SKYbrary Partners:

Safety knowledge contributed by: